Estación de Lluta Medio
Ultimos registro cada 15 minutos 27
| N° | Estación | Fecha / Hora | Temperatura | Humedad | Lluvia | Velocidad | Dirección | Radiación | Presion |
| 27 | Lluta Medio | 05-05-2026 06:30 | 16,9 | 62,7 | 0 | 0 | 0 | 0 | 954 |
| 26 | Lluta Medio | 05-05-2026 06:15 | 17,6 | 60,1 | 0 | 0 | 0 | 0 | 954 |
| 25 | Lluta Medio | 05-05-2026 06:00 | 18,9 | 53,8 | 0 | 0,2 | 301 | 0 | 954 |
| 24 | Lluta Medio | 05-05-2026 05:45 | 17,2 | 54,7 | 0 | 1,5 | 71 | 0 | 954 |
| 23 | Lluta Medio | 05-05-2026 05:30 | 16,3 | 64,3 | 0 | 1 | 76 | 0 | 954 |
| 22 | Lluta Medio | 05-05-2026 05:15 | 16,5 | 67,9 | 0 | 0,4 | 85 | 0 | 954 |
| 21 | Lluta Medio | 05-05-2026 05:00 | 15,8 | 68 | 0 | 0 | 0 | 0 | 954 |
| 20 | Lluta Medio | 05-05-2026 04:45 | 14,6 | 74,4 | 0 | 0 | 0 | 0 | 954 |
| 19 | Lluta Medio | 05-05-2026 04:30 | 13,9 | 79,9 | 0 | 0 | 116 | 0 | 954 |
| 18 | Lluta Medio | 05-05-2026 04:15 | 13,8 | 79,4 | 0 | 0 | 0 | 0 | 954 |
| 17 | Lluta Medio | 05-05-2026 04:00 | 14,2 | 77,8 | 0 | 0 | 91 | 0 | 954 |
| 16 | Lluta Medio | 05-05-2026 03:45 | 14,5 | 79,4 | 0 | 0 | 0 | 0 | 955 |
| 15 | Lluta Medio | 05-05-2026 03:30 | 14,6 | 76,7 | 0 | 0 | 0 | 0 | 955 |
| 14 | Lluta Medio | 05-05-2026 03:15 | 15 | 75,9 | 0 | 0 | 50 | 0 | 955 |
| 13 | Lluta Medio | 05-05-2026 03:00 | 14,8 | 72,5 | 0 | 0 | 0 | 0 | 955 |
| 12 | Lluta Medio | 05-05-2026 02:45 | 15,2 | 73,8 | 0 | 0 | 0 | 0 | 955 |
| 11 | Lluta Medio | 05-05-2026 02:30 | 14,6 | 78,6 | 0 | 0 | 0 | 0 | 955 |
| 10 | Lluta Medio | 05-05-2026 02:15 | 14,9 | 77 | 0 | 0 | 0 | 0 | 955 |
| 9 | Lluta Medio | 05-05-2026 02:00 | 14,7 | 81,2 | 0 | 0 | 0 | 0 | 955 |
| 8 | Lluta Medio | 05-05-2026 01:45 | 14,4 | 81,7 | 0 | 1,6 | 98 | 0 | 955 |
| 7 | Lluta Medio | 05-05-2026 01:30 | 14,5 | 82,2 | 0 | 1,6 | 92 | 1 | 955 |
| 6 | Lluta Medio | 05-05-2026 01:15 | 14,5 | 83,4 | 0 | 0 | 0 | 1 | 955 |
| 5 | Lluta Medio | 05-05-2026 01:00 | 14,2 | 84,7 | 0 | 0 | 0 | 1 | 956 |
| 4 | Lluta Medio | 05-05-2026 00:45 | 14,5 | 84,2 | 0 | 0 | 0 | 1 | 956 |
| 3 | Lluta Medio | 05-05-2026 00:30 | 14,4 | 83,7 | 0 | 0 | 0 | 2 | 956 |
| 2 | Lluta Medio | 05-05-2026 00:15 | 14,1 | 85,4 | 0 | 0 | 0 | 2 | 956 |
| 1 | Lluta Medio | 05-05-2026 00:00 | 14,1 | 85,6 | 0 | 0 | 0 | 2 | 956 |